Owen Roberts, Cayman Islands

2:14 PM EST on November 24, 2017 (GMT -0500)
Roberts International

Weather History for MWCR - March, 2014

Change the Weather History Date:

Sunday, March 9, 2014

  Actual Average Record
Temperature  
Mean Temperature 81 °F -  
Max Temperature 85 °F 83 °F 86 °F (1998)
Min Temperature 77 °F 74 °F 66 °F (2001)
Cooling Degree Days 16    
Growing Degree Days 31 (Base 50)    
Moisture  
Dew Point 71 °F    
Average Humidity 71    
Maximum Humidity 83    
Minimum Humidity 58    
Precipitation  
Precipitation 0.00 in - - ()
Sea Level Pressure  
Sea Level Pressure 30.06 in    
Wind  
Wind Speed 11 mph ()    
Max Wind Speed 14 mph    
Max Gust Speed -    
Visibility 6.2 miles    
Events      
Averages and records for this station are not official NWS values.
T = Trace of Precipitation, MM = Missing Value Source: Averaged Metar Reports

Daily Weather History Graph

Daily Weather History Graph

Search for Another Location

Airport or City:

Trip Planner

Search our weather history database for the weather conditions in past years. The results will help you decide how hot, cold, wet, or windy it might be!

Date:

Astronomy

Mar. 09, 2014 Rise Set
Actual Time 6:38 AM EST 6:33 PM EST
Civil Twilight 6:16 AM EST 6:55 PM EST
Nautical Twilight 5:51 AM EST 7:20 PM EST
Astronomical Twilight 5:25 AM EST 7:46 PM EST
Moon 12:58 PM EST (3/9) 1:30 AM EST (3/9)
Length of Visible Light 12h 38m
Length of Day
11h 54m
First Quarter, 61% of the Moon is Illuminated
Mar 9
First Quarter
Mar 16
Full
Mar 23
Last Quarter
Mar 30
New
Apr 7
First Quarter

Hourly Weather History & Observations

Time (EST) Temp. Heat Index Dew Point Humidity Pressure Visibility Wind Dir Wind Speed Gust Speed Precip Events Conditions
6:24 AM 78.8 °F - 68.0 °F 69% 30.06 in 6.2 mi NE 13.8 mph - N/A   Mostly Cloudy
7:00 AM 78 °F - 69 °F 67% 30.07 in 6 mi NE 12.7 mph - -  
7:00 AM 78.8 °F - 69.8 °F 74% 30.06 in 6.2 mi NE 12.7 mph - N/A   Partly Cloudy
8:00 AM 78.8 °F - 69.8 °F 74% 30.06 in 6.2 mi East 11.5 mph - N/A   Partly Cloudy
9:00 AM 80.6 °F 84.6 °F 71.6 °F 74% 30.09 in 6.2 mi ENE 12.7 mph - N/A   Partly Cloudy
10:00 AM 80.6 °F 85.4 °F 73.4 °F 79% 30.09 in 6.2 mi ENE 13.8 mph - N/A   Partly Cloudy
11:00 AM 82.4 °F 87.2 °F 71.6 °F 70% 30.09 in 6.2 mi ENE 13.8 mph - N/A   Partly Cloudy
12:00 PM 84.2 °F 89.6 °F 71.6 °F 66% 30.09 in 6.2 mi ENE 13.8 mph - N/A   Partly Cloudy
1:00 PM 83 °F - 71 °F 58% 30.08 in 6 mi ENE 12.7 mph - -   Scattered Clouds
1:00 PM 82.4 °F 86.3 °F 69.8 °F 66% 30.06 in 6.2 mi ENE 12.7 mph - N/A   Partly Cloudy
2:00 PM 82.4 °F 87.2 °F 71.6 °F 70% 30.04 in 6.2 mi ENE 13.8 mph - N/A   Partly Cloudy
3:00 PM 82.4 °F 86.3 °F 69.8 °F 66% 30.04 in 6.2 mi ENE 12.7 mph - N/A   Partly Cloudy
3:56 PM 82.4 °F 87.2 °F 71.6 °F 70% 30.01 in 6.2 mi ENE 12.7 mph - N/A   Partly Cloudy
4:50 PM 82.4 °F 87.2 °F 71.6 °F 70% 30.01 in 6.2 mi ENE 12.7 mph - N/A   Partly Cloudy
5:51 PM 80.6 °F 84.6 °F 71.6 °F 74% 30.01 in 6.2 mi ENE 12.7 mph - N/A   Partly Cloudy
6:56 PM 80.6 °F 83.9 °F 69.8 °F 70% 30.04 in 6.2 mi East 8.1 mph - N/A   Partly Cloudy
7:00 PM 80 °F - 69 °F 62% 30.04 in 6 mi East 8.1 mph - -   Scattered Clouds
8:00 PM 77.0 °F - 71.6 °F 83% 30.04 in 6.2 mi East 9.2 mph - N/A   Partly Cloudy
8:51 PM 77.0 °F - 71.6 °F 83% 30.06 in 6.2 mi East 10.4 mph - N/A   Partly Cloudy
9:50 PM 77.0 °F - 69.8 °F 78% 30.06 in 6.2 mi East 9.2 mph - N/A   Partly Cloudy